Regional Weather Roundup
Issued by NWS

Home | Current Version | Previous Version | Text Only | Print | Product List | Glossary Off
Versions: 1 2 3 4 5 6 7 8 9 10 11 12 13 14 15 16 17 18 19 20 21 22 23 24 25 26 27 28 29 30 31 32 33 34 35 36 37 38 39 40 41 42 43 44 45 46 47 48 49 50

000
ASUS43 KFSD 251910
RWRSD

WEATHER ROUNDUP FOR SOUTH DAKOTA
NATIONAL WEATHER SERVICE SIOUX FALLS SD
200 PM CDT WED APR 25 2018

NOTE: "FAIR" INDICATES FEW OR NO CLOUDS BELOW 12,000 FEET WITH NO
SIGNIFICANT WEATHER AND/OR OBSTRUCTIONS TO VISIBILITY.


SDZ001>005-009-010-012>017-252000-
NORTHWEST AND NORTH CENTRAL SOUTH DAKOTA

CITY           SKY/WX    TMP DP  RH WIND       PRES   REMARKS
BUFFALO          N/A     66  25  21 S18G24    29.93F
FAITH            N/A     61  28  28 SW17      30.03F
MOBRIDGE       PTSUNNY   62  34  35 S17       30.03F
$$

SDZ012>016-024>037-041>051-057-063-072>074-252000-
SOUTHWEST AND SOUTH CENTRAL SOUTH DAKOTA

CITY           SKY/WX    TMP DP  RH WIND       PRES   REMARKS
RAPID CTY ARPT SUNNY     69  17  13 S12G23    30.02F
PIERRE         SUNNY     60  27  28 S10G21    30.10F
CUSTER         SUNNY     56   3  11 W16G23    30.11F
ELLSWORTH AFB  SUNNY     69  19  15 SE12      30.01F
PHILIP         SUNNY     65  27  23 SW15G25   30.07F
PINE RIDGE     SUNNY     61  23  23 SW12G20   30.12F
SPEARFISH      FAIR      63  30  29 E6        30.04F
WINNER         FAIR      60  28  29 SW10      30.15F
$$

SDZ004>011-016>023-039-040-252000-
NORTHEAST SOUTH DAKOTA

CITY           SKY/WX    TMP DP  RH WIND       PRES   REMARKS
ABERDEEN       SUNNY     63  29  27 SW21G28   30.10F
WATERTOWN      SUNNY     55  30  38 SW14      30.13F
BROOKINGS      SUNNY     53  28  38 W6        30.16F
SISSETON         N/A     60  30  32 SW12G18   30.10F
$$

SDZ017-020-022-023-036>040-048>070-252000-
SOUTHEAST SOUTH DAKOTA

CITY           SKY/WX    TMP DP  RH WIND       PRES   REMARKS
SIOUX FALLS    MOSUNNY   56  24  29 CALM      30.16F
HURON          SUNNY     56  31  38 SW7       30.14F
CHAMBERLAIN    SUNNY     59  32  36 W13       30.15F
MITCHELL       SUNNY     56  30  37 CALM      30.17F
YANKTON        SUNNY     54  28  36 VRB3      30.18F
$$

ABBREVIATIONS USED IN REMARKS
   TC - TEMPERATURE IN CELSIUS
  WCI - WIND CHILL INDEX
   HX - HEAT INDEX
  VSB - VISIBILITY





USA.gov is the U.S. government's official web portal to all federal, state and local government web resources and services.